Simultaneous Nadir Overpasses (SNOs) Predictions

Prediction of SNOs between TERRA and METOP-C Satellite Orbit:

Table of predicted SNOs for the next 14.0 days since TLE Epoch: 5/17/2019
Index Date (TERRA) Time (TERRA) Lat,Lon (TERRA) SZA (TERRA ) Date (METOP-C) Time (METOP-C) Lat,Lon (METOP-C) SZA (METOP-C ) Distance(km) Time Diff (sec)
1 05/20/2019 11:19:10 -81.31,-122.39 115.64 05/20/2019 11:18:49 -81.30,-122.53 115.67 2.58 21
2 05/20/2019 12:08:37 81.30, 44.99 64.32 05/20/2019 12:09:29 81.30, 44.85 64.33 2.45 52
3 05/23/2019 06:53:25 -81.31, -56.00 116.21 05/23/2019 06:53:12 -81.30, -55.89 116.21 1.92 13
4 05/23/2019 07:42:51 81.31, 111.74 63.80 05/23/2019 07:43:51 81.31, 111.83 63.84 1.65 60
5 05/26/2019 02:27:39 -81.30, 10.37 116.74 05/26/2019 02:27:35 -81.30, 10.36 116.75 0.44 4
6 05/26/2019 03:17:05 81.31, 178.08 63.27 05/26/2019 03:18:14 81.31, 178.03 63.29 0.94 69
7 05/28/2019 21:12:27 81.30, -90.90 62.78 05/28/2019 21:11:18 81.29, -91.06 62.72 2.91 69
8 05/28/2019 22:01:54 -81.30, 76.73 117.23 05/28/2019 22:01:59 -81.30, 76.60 117.25 2.10 5
9 05/31/2019 16:46:42 81.29, -24.59 62.33 05/31/2019 16:45:41 81.30, -24.47 62.32 2.10 61




NCC Satellite Simultaneous Nadir Overpasses (SNOs) Prediction Service
